Location: Unspecified
(44.0704°N, 88.6889°W)
Time: 05:47:14
(UTC+02:00)

Transit 2A - Pass Details

Date: 25 June 2019
Orbit: 594 x 964 km, 66.7° (Epoch: 21 July)

Event Time Altitude Azimuth Distance (km) Brightness Sun altitude
Rises 16:10:08 0° 328° (NNW) 3,437 9.1 39.6°
Reaches altitude 10° 16:12:44 10° 328° (NNW) 2,440 8.4 40.0°
Maximum altitude 16:18:20 90° 57° (ENE) 770 6.8 41.0°
Drops below altitude 10° 16:23:19 10° 150° (SSE) 2,174 8.9 41.9°
Sets 16:25:31 0° 150° (SSE) 3,036 9.5 42.3°
